This is the latest recevied weather packets stored in our database for station/object K9TLD. If no packets are shown the sender has not sent any weather packets the latest 1 day(s).
| Time | Temp. | Humidity | Pressure | Rain* | Wind** | Luminosity | Snow |
|---|---|---|---|---|---|---|---|
| 1777990730 | 11.11° C | 45% | 1009.2 hPa | 0 mm | 0.89 m/s, 225° | 365 W/m² | - |
| 1777990428 | 11.67° C | 45% | 1009.2 hPa | 0 mm | 0.45 m/s, 247° | 385 W/m² | - |
| 1777990124 | 11.11° C | 45% | 1009.1 hPa | 0 mm | 0.89 m/s, 232° | 427 W/m² | - |
| 1777989820 | 11.11° C | 45% | 1009.1 hPa | 0 mm | 0.89 m/s, 235° | 308 W/m² | - |
| 1777989517 | 10.56° C | 46% | 1009.1 hPa | 0 mm | 1.34 m/s, 210° | 399 W/m² | - |
| 1777989213 | 10.56° C | 46% | 1009.1 hPa | 0 mm | 1.34 m/s, 256° | 335 W/m² | - |
| 1777988910 | 10° C | 46% | 1009.2 hPa | 0 mm | 1.79 m/s, 222° | 319 W/m² | - |
| 1777988607 | 10° C | 48% | 1009.1 hPa | 0 mm | 0.89 m/s, 225° | 217 W/m² | - |
| 1777988303 | 10° C | 47% | 1009.4 hPa | 0 mm | 0.45 m/s, 225° | 151 W/m² | - |
| 1777988000 | 10° C | 45% | 1009.3 hPa | 0 mm | 0.45 m/s, 232° | 167 W/m² | - |
| 1777987696 | 10° C | 46% | 1009.4 hPa | 0 mm | 0 m/s | 257 W/m² | - |
| 1777987393 | 10° C | 46% | 1009.8 hPa | 0 mm | 0.89 m/s, 240° | 222 W/m² | - |
| 1777987090 | 10° C | 48% | 1009.7 hPa | 0 mm | 0 m/s | 208 W/m² | - |
| 1777986788 | 9.44° C | 48% | 1009.7 hPa | 0 mm | 0.89 m/s, 265° | 145 W/m² | - |
| 1777986485 | 9.44° C | 49% | 1009.7 hPa | 0 mm | 0.45 m/s, 222° | 142 W/m² | - |
| 1777986186 | 10° C | 47% | 1009.7 hPa | 0 mm | 0.45 m/s, 227° | 180 W/m² | - |
| 1777985880 | 10° C | 47% | 1009.7 hPa | 0 mm | 0.89 m/s, 266° | 241 W/m² | - |
| 1777985577 | 9.44° C | 47% | 1009.7 hPa | 0 mm | 0.45 m/s, 222° | 244 W/m² | - |
| 1777985274 | 9.44° C | 48% | 1009.4 hPa | 0 mm | 0.45 m/s, 223° | 191 W/m² | - |
| 1777984971 | 10° C | 46% | 1009.2 hPa | 0 mm | 0.89 m/s, 254° | 198 W/m² | - |
| 1777984666 | 10° C | 47% | 1009.2 hPa | 0 mm | 0.45 m/s, 221° | 196 W/m² | - |
| 1777984363 | 9.44° C | 46% | 1008.9 hPa | 0 mm | 0 m/s | 141 W/m² | - |
| 1777984060 | 9.44° C | 46% | 1008.9 hPa | 0 mm | 0 m/s | 146 W/m² | - |
| 1777983757 | 8.89° C | 45% | 1008.8 hPa | 0 mm | 0.89 m/s, 231° | 157 W/m² | - |
| 1777983454 | 8.89° C | 46% | 1008.9 hPa | 0 mm | 0.89 m/s, 245° | 140 W/m² | - |
* Rain latest hour (hover to see other rain measurements)
** Current wind speed in m/s (hover to see current wind gust speed)